Regional Weather Roundup
Issued by NWS Grand Forks, ND

Home | Current Version | Previous Version | Graphics & Text | Print | Product List | Glossary On
Versions: 1 2 3 4 5 6 7 8 9 10 11 12 13 14 15 16 17 18 19 20 21 22 23 24 25 26 27 28 29 30 31 32 33 34 35 36 37 38 39 40 41 42 43 44 45 46 47 48 49 50
000
ASUS43 KFGF 301810
RWRFGF
PRAIRIE TO PINES  WEATHER ROUNDUP
NATIONAL WEATHER SERVICE EASTERN NORTH DAKOTA/GRAND FORKS ND
100 PM CDT MON MAR 30 2015

 **SATELLITE DATA USED TO AUGMENT SKY COVER AT AUTOMATED STATIONS**
 *****  WEATHER ACROSS EASTERN NORTH DAKOTA  *****

CITY           SKY/WX    TMP DP  RH WIND       PRES   REMARKS
GRAND FORKS    CLOUDY    43  37  79 NE5       29.86R
6HR MIN TEMP:  34; 6HR MAX TEMP:  45; 6HR PCP:  0.03;

GRAND FRKS AFB CLOUDY    45  36  71 NE9       29.85F
GRAND FRKS NWS   N/A     41 N/A N/A NE6         N/A
DEVILS LAKE    SUNNY     50  37  62 SE5       29.82R
6HR MIN TEMP:  36; 6HR MAX TEMP:  50;

FARGO          PTSUNNY   56  33  42 SE16G23   29.77F
WAHPETON ARPT  PTCLDY    54  32  43 SE13      29.79F
$$

 ***** WEATHER ACROSS CENTRAL AND WESTERN NORTH DAKOTA  *****

CITY           SKY/WX    TMP DP  RH WIND       PRES   REMARKS
BISMARCK       SUNNY     63  36  36 NW22G33   29.89R
6HR MIN TEMP:  34; 6HR MAX TEMP:  64;

MINOT          SUNNY     61  36  39 NW20G33   29.87R
6HR MIN TEMP:  43; 6HR MAX TEMP:  61;

JAMESTOWN      SUNNY     63  36  36 NW21G28   29.79S
6HR MIN TEMP:  33; 6HR MAX TEMP:  63;

MINOT AFB      SUNNY     59  40  50 NW24G32   29.86R
GARRISON         N/A     62  38  40 N26G37    29.88R
WILLISTON      SUNNY     63  37  38 NW17      29.96R
6HR MIN TEMP:  39; 6HR MAX TEMP:  63;

DICKINSON      SUNNY     62  34  35 NW20G28   29.95R
6HR MIN TEMP:  42; 6HR MAX TEMP:  63;

HETTINGER      SUNNY     64  32  30 NW25G33   29.98R
6HR MIN TEMP:  40; 6HR MAX TEMP:  64;

$$

 *****  OTHER AIRPORT OBSERVATIONS IN OUR AREA  *****

CITY           SKY/WX    TMP DP  RH WIND       PRES   REMARKS
WALHALLA       NOT AVBL
GRAFTON AIRPOR NOT AVBL
VALLEY CITY AR FAIR      55  37  50 NW15G21   29.79S
CANDO          NOT AVBL
CAVALIER APRT  CLOUDY    41  36  81 S3        29.87R
GWINNER        CLEAR     63  39  42 W13G18      N/A
SHEYENNE NWR     N/A     58  34  40 W9        29.95S
ROLLA          FAIR      46  36  66 E6        29.86R
 ***** THE ABOVE OBSERVATIONS ARE NON NWS ARE NOT QUALITY
       CONTROLLED AND MAY MIS-REPORT RAIN FOR SNOW...
$$

  *****  WEATHER ACROSS NORTHERN MINNESOTA  *****

CITY           SKY/WX    TMP DP  RH WIND       PRES   REMARKS
FLAG ISLAND    PTSUNNY   36  30  80 SE9       29.83F
WARROAD        CLOUDY    45  36  70 SW6       29.85F
ROSEAU         CLOUDY    43  36  75 SW6       29.85S
HALLOCK        CLOUDY    45  39  81 SW8       29.86S
THF RVR FALLS  CLOUDY    43  34  70 SE7       29.87R
6HR MIN TEMP:  32; 6HR MAX TEMP:  45; 6HR PCP:  0.01;

BAUDETTE       CLOUDY    46  29  51 W5        29.84S
6HR MIN TEMP:  25; 6HR MAX TEMP:  46;

WASKISH        CLOUDY    43  32  65 CALM      29.85F
CROOKSTON      LGT RAIN  41  37  87 NE6       29.87R
$$
  *****  WEATHER ACROSS CENTRAL AND WEST MINNESOTA  *****

CITY           SKY/WX    TMP DP  RH WIND       PRES   REMARKS
FOSSTON        RAIN      39  37  93 CALM      29.84R
BEMIDJI        LGT RAIN  42  32  68 SE8       29.83F
PARK RAPIDS    CLOUDY    44  34  67 E9        29.83F
6HR MIN TEMP:  34; 6HR MAX TEMP:  44; 6HR PCP: TRACE;

ELBOW LAKE     MOCLDY    51  32  48 SE10      29.82F
WADENA         PTSUNNY   48  30  49 E9        29.84F
DETROIT LAKES  CLOUDY    48  32  53 SE15      29.80F
MOORHEAD       PTSUNNY   55  32  41 S17       29.78F
FERGUS FALLS   CLOUDY    54  27  35 SE13G18   29.83F
MORRIS MN      PTSUNNY   59  36  41 S7        29.81F
STAPLES        PTSUNNY   46  28  49 E8        29.84F
$$
  *****  WEATHER ELSEWHERE ACROSS MINNESOTA  *****

CITY           SKY/WX    TMP DP  RH WIND       PRES   REMARKS
DULUTH         CLOUDY    48  25  40 SW8       29.88F
6HR MIN TEMP:  33; 6HR MAX TEMP:  50;

INTRNTL FALLS  PTSUNNY   47  24  40 SE5       29.84F
6HR MIN TEMP:  22; 6HR MAX TEMP:  49;

ELY            PTSUNNY   48  19  32 W7        29.86F
CLOQUET        CLOUDY    46  25  42 S9        29.89F
WHEATON        MOSUNNY   63  34  34 W7        29.81F
BRAINERD       CLOUDY    46  34  62 NE13      29.87F
6HR MIN TEMP:  28; 6HR MAX TEMP:  47;

HIBBING        CLOUDY    49  22  34 SW8       29.86F
6HR MIN TEMP:  22; 6HR MAX TEMP:  50;

ALEXANDRIA     CLOUDY    49  33  54 SE12      29.84F
6HR MIN TEMP:  33; 6HR MAX TEMP:  49;

SAINT CLOUD    CLOUDY    48  34  58 E12G21    29.86F
6HR MIN TEMP:  31; 6HR MAX TEMP:  48;

MINNEAPOLIS    CLOUDY    49  30  48 E10       29.91F
6HR MIN TEMP:  37; 6HR MAX TEMP:  49;

$$

  *****  WEATHER ACROSS SOUTH DAKOTA  *****

CITY           SKY/WX    TMP DP  RH WIND       PRES   REMARKS
SIOUX FALLS    PTSUNNY   68  25  19 W12       29.89F
6HR MIN TEMP:  31; 6HR MAX TEMP:  68;

BROOKINGS      NOT AVBL
WATERTOWN      SUNNY     66  28  24 W22       29.84F
6HR MIN TEMP:  31; 6HR MAX TEMP:  67;

HURON          PTSUNNY   70  29  21 W22G28    29.87F
6HR MIN TEMP:  31; 6HR MAX TEMP:  71;

SISSETON         N/A     69  31  24 NW15G23   29.77F
ABERDEEN       SUNNY     70  34  26 W20G29    29.82F
6HR MIN TEMP:  31; 6HR MAX TEMP:  70;

MITCHELL       MOSUNNY   75  24  15 NW22G31   29.90S
PIERRE         PTSUNNY   67  32  27 NW25G32   29.93F
6HR MIN TEMP:  37; 6HR MAX TEMP:  68;

MOBRIDGE       SUNNY     68  34  28 NW21      29.86F
RAPID CITY     MOSUNNY   66  30  26 N24G30    30.05F
6HR MIN TEMP:  39; 6HR MAX TEMP:  66;

$$

  *****  SOME WEATHER IN NEARBY STATES *****

CITY           SKY/WX    TMP DP  RH WIND       PRES   REMARKS
GLASGOW MT     SUNNY     59  34  39 NW7       30.01F
6HR MIN TEMP:  40; 6HR MAX TEMP:  59;

GREAT FALLS MT CLOUDY    61  25  25 SW18      30.06F
6HR MIN TEMP:  41; 6HR MAX TEMP:  61;

CHEYENNE WY    SUNNY     61  18  18 N24G30    30.19F
6HR MIN TEMP:  42; 6HR MAX TEMP:  61;

SCOTTSBLUFF NE SUNNY     69  25  19 NW13G21   30.12F
6HR MIN TEMP:  32; 6HR MAX TEMP:  70;

OMAHA NE       PTSUNNY   71  24  17 SW17G26   30.00F
6HR MIN TEMP:  36; 6HR MAX TEMP:  71;

DES MOINES IA  PTSUNNY   69  24  18 SW23      30.01F
6HR MIN TEMP:  36; 6HR MAX TEMP:  70;

DAVENPORT IA   SUNNY     65  28  24 W22G29    30.02F
6HR MIN TEMP:  32; 6HR MAX TEMP:  65;

CHICAGO IL     PTSUNNY   57  28  33 W17       30.01F
6HR MIN TEMP:  34; 6HR MAX TEMP:  58;

EAU CLAIRE WI  LGT RAIN  45  37  73 NE10      29.95F
6HR MIN TEMP:  35; 6HR MAX TEMP:  45; 6HR PCP: TRACE;

LA CROSSE WI   CLOUDY    53  28  38 N5        29.98S
6HR MIN TEMP:  34; 6HR MAX TEMP:  53;

$$

  *****  SOME NATIONAL WEATHER *****

CITY           SKY/WX    TMP DP  RH WIND       PRES   REMARKS
LA GUARDIA NY  PTSUNNY   49  30  48 W12       29.78F
6HR MIN TEMP:  37; 6HR MAX TEMP:  50;

RALEIGH NC     MOSUNNY   54  46  74 SW12      30.00F
6HR MIN TEMP:  41; 6HR MAX TEMP:  54; 6HR PCP:  0.16;

ATLANTA GA     PTSUNNY   65  53  65 NW13      30.16F
6HR MIN TEMP:  53; 6HR MAX TEMP:  65;

NEW ORLEANS LA PTSUNNY   78  61  55 W10       30.22F
6HR MIN TEMP:  62; 6HR MAX TEMP:  80; 6HR PCP: TRACE;

OKLAHOMA CITY  MOSUNNY   73  38  27 E6        30.18F
6HR MIN TEMP:  46; 6HR MAX TEMP:  73;

ALBUQUERQUE NM MOSUNNY   68  26  20 SW9       30.27F
6HR MIN TEMP:  50; 6HR MAX TEMP:  68;

SALT LAKE CITY MOSUNNY   63  22  20 NW5       30.22F
6HR MIN TEMP:  40; 6HR MAX TEMP:  63;

LOS ANGELES CA MOSUNNY   65  57  75 W6        30.04S HAZE
6HR MIN TEMP:  58; 6HR MAX TEMP:  65;

BOISE ID       SUNNY     64  33  31 SE9       30.15F


USA.gov is the U.S. government's official web portal to all federal, state and local government web resources and services.